Location: *
(41.7492°S, 135.4150°W)
Time: 00:09:25
(UTC+00:00)

RESURS DK-1 - Pass Details

Date: 20 September 2021
Orbit: 556 x 560 km, 69.9° (Epoch: 25 October)

Event Time Altitude Azimuth Distance (km) Brightness Sun altitude
Rises 14:09:56 0° 207° (SSW) 2,788 5.7 -9.0°
Reaches altitude 10° 14:12:09 10° 207° (SSW) 1,883 4.8 -8.5°
Maximum altitude 14:16:23 83° 295° (WNW) 579 2.3 -7.8°
Drops below altitude 10° 14:20:32 10° 21° (NNE) 1,854 5.2 -7.0°
Sets 14:22:43 0° 22° (NNE) 2,741 6.1 -6.6°
